Location: Newark
(43.0000°N, 1.6781°W)
Time: 04:46:57
(UTC+00:00)

Explorer 7 - Pass Details

Date: 26 April 2021
Orbit: 484 x 677 km, 50.3° (Epoch: 07 May)

Event Time Altitude Azimuth Distance (km) Brightness Sun altitude
Rises 15:59:01 0° 185° (S) 2,535 10.4 32.1°
Reaches altitude 10° 16:02:20 10° 153° (SSE) 1,677 9.2 31.5°
Maximum altitude 16:03:50 12° 130° (SE) 1,566 8.9 31.3°
Drops below altitude 10° 16:05:21 10° 106° (ESE) 1,706 8.9 31.0°
Sets 16:08:47 0° 75° (ENE) 2,634 9.8 30.4°
